UAL270 KDEN-KLAS

Flight info

Callsign UAL270
Flight time 1h 28m
Altitude 32000
Route CONNR8 WERNR ZAKRY CHESZ GGAPP CHOWW4
Aircraft B738/M-SDE2E3FGHIRWXY/LB1

Departure

Time 2026-05-07 21:35
Airport Denver International Airport (KDEN)

Arrival

Time 2026-05-07 23:03
Airport Harry Reid International Airport (KLAS)
Time Latitude Longitude Altitude Speed Heading
2026-05-07 20:47 39.85936 -104.67039 5377 ft 0 kts 180°
2026-05-07 21:21 39.85944 -104.67039 5376 ft 4 kts 180°
2026-05-07 21:21 39.85971 -104.67038 5377 ft 4 kts 189°
2026-05-07 21:22 39.85996 -104.67027 5375 ft 4 kts 219°
2026-05-07 21:22 39.86009 -104.67003 5375 ft 3 kts 269°
2026-05-07 21:22 39.86009 -104.67000 5375 ft 1 kts 271°
2026-05-07 21:26 39.86009 -104.67002 5379 ft 1 kts 271°
2026-05-07 21:26 39.86009 -104.67037 5379 ft 7 kts 270°
2026-05-07 21:26 39.86010 -104.67116 5377 ft 11 kts 271°
2026-05-07 21:27 39.86011 -104.67230 5379 ft 13 kts 271°
2026-05-07 21:27 39.86012 -104.67352 5379 ft 13 kts 270°
2026-05-07 21:27 39.86012 -104.67469 5379 ft 13 kts 271°
2026-05-07 21:27 39.86013 -104.67588 5379 ft 13 kts 270°
2026-05-07 21:28 39.86014 -104.67713 5379 ft 14 kts 271°
2026-05-07 21:28 39.86015 -104.67854 5378 ft 17 kts 271°
2026-05-07 21:28 39.86016 -104.68006 5379 ft 17 kts 270°
2026-05-07 21:28 39.86019 -104.68154 5379 ft 16 kts 275°
2026-05-07 21:29 39.86031 -104.68298 5374 ft 16 kts 268°
2026-05-07 21:29 39.86030 -104.68440 5370 ft 15 kts 269°
2026-05-07 21:29 39.85959 -104.68511 5368 ft 15 kts 179°
2026-05-07 21:29 39.85855 -104.68511 5369 ft 15 kts 181°
2026-05-07 21:30 39.85744 -104.68515 5368 ft 17 kts 181°
2026-05-07 21:30 39.85627 -104.68507 5369 ft 17 kts 179°
2026-05-07 21:30 39.85514 -104.68507 5375 ft 16 kts 180°
2026-05-07 21:30 39.85405 -104.68514 5374 ft 15 kts 183°
2026-05-07 21:31 39.85301 -104.68515 5377 ft 15 kts 179°
2026-05-07 21:31 39.85211 -104.68551 5373 ft 14 kts 249°
2026-05-07 21:31 39.85202 -104.68690 5367 ft 17 kts 269°
2026-05-07 21:31 39.85200 -104.68845 5361 ft 15 kts 268°
2026-05-07 21:32 39.85196 -104.68988 5354 ft 17 kts 268°
2026-05-07 21:32 39.85195 -104.69146 5346 ft 16 kts 271°
2026-05-07 21:32 39.85198 -104.69302 5343 ft 18 kts 272°
2026-05-07 21:32 39.85200 -104.69456 5337 ft 16 kts 270°
2026-05-07 21:33 39.85200 -104.69574 5338 ft 8 kts 271°
2026-05-07 21:33 39.85210 -104.69646 5339 ft 8 kts 317°
2026-05-07 21:33 39.85253 -104.69660 5335 ft 0 kts 358°
2026-05-07 21:34 39.85301 -104.69660 5336 ft 30 kts
2026-05-07 21:34 39.85744 -104.69656 5341 ft 96 kts
2026-05-07 21:34 39.86608 -104.69644 5334 ft 151 kts
2026-05-07 21:34 39.87767 -104.69662 5615 ft 176 kts 358°
2026-05-07 21:35 39.89105 -104.69620 5842 ft 206 kts 354°
2026-05-07 21:35 39.90541 -104.69759 6480 ft 202 kts 338°
2026-05-07 21:35 39.91664 -104.70863 6670 ft 218 kts 301°
2026-05-07 21:35 39.92125 -104.72779 7132 ft 226 kts 274°
2026-05-07 21:36 39.91828 -104.74815 7680 ft 242 kts 244°
2026-05-07 21:36 39.90806 -104.76619 8200 ft 255 kts 237°
2026-05-07 21:36 39.89715 -104.78555 8653 ft 272 kts 239°
2026-05-07 21:36 39.88663 -104.80610 9426 ft 271 kts 242°
2026-05-07 21:37 39.87680 -104.82699 9826 ft 269 kts 243°
2026-05-07 21:37 39.86743 -104.84817 9966 ft 274 kts 244°
2026-05-07 21:37 39.85801 -104.87001 9985 ft 277 kts 244°
2026-05-07 21:37 39.84864 -104.89186 9959 ft 274 kts 245°
2026-05-07 21:38 39.84039 -104.91412 10080 ft 271 kts 256°
2026-05-07 21:38 39.83583 -104.93819 10645 ft 277 kts 259°
2026-05-07 21:38 39.83125 -104.96255 11462 ft 277 kts 259°
2026-05-07 21:38 39.82653 -104.98672 12192 ft 281 kts 258°
2026-05-07 21:39 39.82160 -105.01157 12988 ft 285 kts 258°
2026-05-07 21:39 39.81660 -105.03662 13759 ft 288 kts 258°
2026-05-07 21:39 39.81149 -105.06210 14402 ft 293 kts 258°
2026-05-07 21:39 39.80632 -105.08782 15114 ft 295 kts 258°
2026-05-07 21:40 39.80111 -105.11373 15791 ft 298 kts 259°
2026-05-07 21:40 39.79583 -105.13994 16456 ft 301 kts 258°
2026-05-07 21:40 39.79047 -105.16649 17117 ft 305 kts 258°
2026-05-07 21:40 39.78506 -105.19333 17789 ft 308 kts 259°
2026-05-07 21:41 39.77957 -105.22042 18385 ft 311 kts 258°
2026-05-07 21:41 39.77401 -105.24779 18969 ft 314 kts 258°
2026-05-07 21:41 39.76842 -105.27526 19607 ft 314 kts 259°
2026-05-07 21:41 39.76278 -105.30296 20128 ft 320 kts 259°
2026-05-07 21:42 39.75701 -105.33133 20580 ft 326 kts 259°
2026-05-07 21:42 39.75120 -105.35979 21224 ft 326 kts 259°
2026-05-07 21:42 39.74534 -105.38840 21799 ft 329 kts 259°
2026-05-07 21:42 39.73951 -105.41690 22346 ft 332 kts 260°
2026-05-07 21:43 39.73355 -105.44614 22760 ft 340 kts 259°
2026-05-07 21:43 39.72733 -105.47665 22850 ft 357 kts 259°
2026-05-07 21:43 39.72081 -105.50845 23005 ft 372 kts 259°
2026-05-07 21:43 39.71400 -105.54148 23326 ft 381 kts 259°
2026-05-07 21:44 39.70712 -105.57481 23818 ft 384 kts 259°
2026-05-07 21:44 39.70025 -105.60835 24347 ft 384 kts 259°
2026-05-07 21:44 39.69337 -105.64194 24851 ft 384 kts 259°
2026-05-07 21:44 39.68674 -105.67562 25278 ft 386 kts 262°
2026-05-07 21:45 39.68138 -105.71031 25361 ft 397 kts 264°
2026-05-07 21:45 39.67669 -105.74595 25635 ft 403 kts 264°
2026-05-07 21:45 39.67210 -105.78191 26063 ft 404 kts 264°
2026-05-07 21:45 39.66752 -105.81748 26528 ft 405 kts 264°
2026-05-07 21:46 39.66277 -105.85364 26948 ft 408 kts 264°
2026-05-07 21:46 39.65789 -105.89006 27321 ft 410 kts 264°
2026-05-07 21:46 39.65292 -105.92667 27693 ft 413 kts 264°
2026-05-07 21:46 39.64788 -105.96340 28071 ft 415 kts 264°
2026-05-07 21:47 39.64278 -106.00033 28442 ft 417 kts 264°
2026-05-07 21:47 39.63764 -106.03745 28837 ft 419 kts 264°
2026-05-07 21:47 39.63245 -106.07475 29204 ft 421 kts 264°
2026-05-07 21:47 39.62723 -106.11226 29546 ft 423 kts 264°
2026-05-07 21:48 39.62197 -106.14988 29885 ft 425 kts 264°
2026-05-07 21:48 39.61667 -106.18775 30197 ft 428 kts 264°
2026-05-07 21:48 39.61134 -106.22575 30483 ft 429 kts 264°
2026-05-07 21:48 39.60598 -106.26391 30785 ft 430 kts 264°
2026-05-07 21:49 39.60061 -106.30196 31158 ft 428 kts 264°
2026-05-07 21:49 39.59525 -106.33984 31560 ft 426 kts 264°
2026-05-07 21:49 39.58990 -106.37768 31881 ft 426 kts 265°
2026-05-07 21:49 39.58453 -106.41553 32065 ft 428 kts 264°
2026-05-07 21:50 39.57375 -106.49129 32044 ft 430 kts 264°
2026-05-07 21:50 39.56291 -106.56703 32053 ft 425 kts 265°
2026-05-07 21:51 39.55210 -106.64234 32053 ft 425 kts 264°
2026-05-07 21:51 39.53584 -106.71664 32034 ft 434 kts 254°
2026-05-07 21:52 39.51214 -106.78883 32010 ft 435 kts 253°
2026-05-07 21:52 39.48857 -106.86078 32039 ft 433 kts 253°
2026-05-07 21:53 39.46571 -106.93280 32094 ft 435 kts 254°
2026-05-07 21:53 39.44282 -107.00547 32089 ft 436 kts 254°
2026-05-07 21:54 39.41979 -107.07843 32040 ft 439 kts 254°
2026-05-07 21:54 39.39665 -107.15149 32050 ft 440 kts 254°
2026-05-07 21:55 39.37311 -107.22421 32019 ft 443 kts 252°
2026-05-07 21:55 39.34659 -107.29651 32020 ft 446 kts 250°
2026-05-07 21:56 39.31923 -107.36863 32021 ft 447 kts 250°
2026-05-07 21:56 39.29197 -107.44102 32001 ft 448 kts 250°
2026-05-07 21:57 39.26487 -107.51342 32032 ft 447 kts 250°
2026-05-07 21:57 39.23805 -107.58517 32022 ft 447 kts 250°
2026-05-07 21:58 39.21116 -107.65689 32018 ft 434 kts 250°
2026-05-07 21:58 39.19818 -107.69126 32020 ft 418 kts 250°
2026-05-07 21:58 39.18557 -107.72467 32029 ft 413 kts 251°
2026-05-07 21:59 39.16054 -107.79132 32035 ft 414 kts 250°
2026-05-07 21:59 39.13535 -107.85833 32041 ft 416 kts 250°
2026-05-07 22:00 39.11013 -107.92514 32032 ft 417 kts 250°
2026-05-07 22:00 39.08461 -107.99251 32038 ft 418 kts 250°
2026-05-07 22:01 39.06339 -108.04838 32026 ft 417 kts 250°
2026-05-07 22:01 39.03790 -108.11532 32014 ft 416 kts 250°
2026-05-07 22:02 39.01247 -108.18201 32021 ft 414 kts 250°
2026-05-07 22:02 38.98711 -108.24835 32024 ft 412 kts 250°
2026-05-07 22:03 38.96177 -108.31454 32026 ft 412 kts 250°
2026-05-07 22:03 38.93654 -108.38031 32033 ft 413 kts 250°
2026-05-07 22:04 38.91102 -108.44667 31998 ft 415 kts 250°
2026-05-07 22:04 38.88534 -108.51329 32022 ft 416 kts 250°
2026-05-07 22:05 38.85955 -108.58002 31997 ft 416 kts 250°
2026-05-07 22:05 38.83396 -108.64612 32003 ft 417 kts 250°
2026-05-07 22:06 38.80811 -108.71274 32009 ft 417 kts 249°
2026-05-07 22:06 38.78217 -108.77943 31987 ft 418 kts 250°
2026-05-07 22:07 38.75608 -108.84638 32007 ft 420 kts 249°
2026-05-07 22:07 38.73006 -108.91305 31999 ft 422 kts 249°
2026-05-07 22:08 38.70381 -108.98009 32020 ft 422 kts 249°
2026-05-07 22:08 38.67746 -109.04724 31993 ft 420 kts 249°
2026-05-07 22:09 38.65122 -109.11393 31983 ft 418 kts 249°
2026-05-07 22:09 38.62509 -109.18021 31996 ft 416 kts 249°
2026-05-07 22:10 38.59909 -109.24610 31998 ft 418 kts 249°
2026-05-07 22:10 38.57282 -109.31253 31995 ft 420 kts 249°
2026-05-07 22:11 38.54638 -109.37923 31996 ft 421 kts 248°
2026-05-07 22:11 38.51979 -109.44609 31989 ft 422 kts 248°
2026-05-07 22:12 38.49316 -109.51297 31984 ft 423 kts 248°
2026-05-07 22:12 38.46646 -109.57988 31980 ft 423 kts 248°
2026-05-07 22:13 38.43964 -109.64692 31970 ft 423 kts 248°
2026-05-07 22:13 38.41284 -109.71379 31963 ft 424 kts 248°
2026-05-07 22:14 38.38600 -109.78060 31968 ft 423 kts 248°
2026-05-07 22:14 38.35933 -109.84688 31942 ft 423 kts 248°
2026-05-07 22:15 38.33249 -109.91345 31951 ft 422 kts 248°
2026-05-07 22:15 38.30563 -109.98000 31943 ft 423 kts 248°
2026-05-07 22:16 38.27885 -110.04669 31950 ft 422 kts 249°
2026-05-07 22:16 38.25481 -110.11473 31950 ft 421 kts 251°
2026-05-07 22:17 38.23155 -110.18314 31946 ft 422 kts 250°
2026-05-07 22:17 38.20825 -110.25114 31912 ft 422 kts 250°
2026-05-07 22:18 38.17260 -110.35363 31939 ft 422 kts 250°
2026-05-07 22:19 38.14875 -110.42203 31936 ft 424 kts 250°
2026-05-07 22:19 38.12476 -110.49075 31913 ft 425 kts 250°
2026-05-07 22:20 38.10068 -110.55948 31925 ft 427 kts 250°
2026-05-07 22:20 38.07662 -110.62793 31938 ft 427 kts 249°
2026-05-07 22:21 38.05225 -110.69710 31935 ft 426 kts 249°
2026-05-07 22:21 38.02818 -110.76527 31938 ft 426 kts 249°
2026-05-07 22:22 38.00392 -110.83382 31925 ft 426 kts 249°
2026-05-07 22:22 37.97961 -110.90237 31933 ft 426 kts 249°
2026-05-07 22:23 37.95528 -110.97079 31938 ft 426 kts 249°
2026-05-07 22:23 37.93093 -111.03915 31940 ft 426 kts 249°
2026-05-07 22:24 37.90650 -111.10754 31932 ft 426 kts 249°
2026-05-07 22:24 37.88206 -111.17583 31932 ft 426 kts 249°
2026-05-07 22:25 37.85756 -111.24412 31944 ft 426 kts 249°
2026-05-07 22:25 37.83316 -111.31201 31946 ft 427 kts 249°
2026-05-07 22:26 37.80852 -111.38043 31926 ft 427 kts 249°
2026-05-07 22:26 37.78381 -111.44886 31944 ft 428 kts 248°
2026-05-07 22:27 37.75897 -111.51742 31951 ft 429 kts 248°
2026-05-07 22:27 37.73405 -111.58608 31945 ft 429 kts 248°
2026-05-07 22:28 37.70912 -111.65466 31944 ft 429 kts 248°
2026-05-07 22:28 37.68412 -111.72325 31957 ft 430 kts 248°
2026-05-07 22:29 37.65909 -111.79178 32014 ft 430 kts 248°
2026-05-07 22:29 37.63401 -111.86030 32046 ft 429 kts 248°
2026-05-07 22:30 37.60907 -111.92830 32085 ft 429 kts 248°
2026-05-07 22:30 37.58399 -111.99655 32114 ft 429 kts 248°
2026-05-07 22:31 37.55883 -112.06490 32118 ft 429 kts 248°
2026-05-07 22:31 37.53362 -112.13305 32110 ft 429 kts 247°
2026-05-07 22:32 37.50288 -112.19801 32082 ft 433 kts 239°
2026-05-07 22:32 37.46880 -112.26092 32033 ft 435 kts 239°
2026-05-07 22:33 37.43508 -112.32415 31982 ft 435 kts 239°
2026-05-07 22:33 37.40180 -112.38786 31930 ft 436 kts 239°
2026-05-07 22:34 37.36890 -112.45127 31932 ft 435 kts 239°
2026-05-07 22:34 37.33573 -112.51493 31939 ft 435 kts 239°
2026-05-07 22:35 37.30251 -112.57853 31944 ft 435 kts 239°
2026-05-07 22:35 37.26929 -112.64209 31956 ft 435 kts 239°
2026-05-07 22:36 37.23598 -112.70564 31936 ft 435 kts 239°
2026-05-07 22:36 37.20260 -112.76909 31974 ft 435 kts 239°
2026-05-07 22:37 37.16918 -112.83244 31996 ft 432 kts 239°
2026-05-07 22:37 37.15282 -112.86339 31986 ft 420 kts 239°
2026-05-07 22:37 37.13675 -112.89378 31740 ft 414 kts 240°
2026-05-07 22:37 37.12100 -112.92358 31510 ft 409 kts 240°
2026-05-07 22:38 37.10534 -112.95323 31167 ft 407 kts 240°
2026-05-07 22:38 37.08979 -112.98264 30845 ft 404 kts 240°
2026-05-07 22:38 37.07449 -113.01155 30533 ft 402 kts 240°
2026-05-07 22:38 37.05906 -113.04069 30181 ft 400 kts 240°
2026-05-07 22:39 37.04371 -113.06966 29799 ft 398 kts 240°
2026-05-07 22:39 37.02846 -113.09838 29420 ft 395 kts 240°
2026-05-07 22:39 37.01331 -113.12691 29024 ft 392 kts 240°
2026-05-07 22:39 36.99826 -113.15520 28696 ft 388 kts 239°
2026-05-07 22:40 36.98330 -113.18332 28303 ft 386 kts 240°
2026-05-07 22:40 36.96846 -113.21119 27944 ft 384 kts 239°
2026-05-07 22:40 36.95367 -113.23895 27578 ft 381 kts 239°
2026-05-07 22:40 36.93899 -113.26648 27224 ft 379 kts 239°
2026-05-07 22:41 36.92457 -113.29349 26867 ft 377 kts 239°
2026-05-07 22:41 36.91002 -113.32075 26509 ft 375 kts 239°
2026-05-07 22:41 36.89558 -113.34776 26164 ft 373 kts 239°
2026-05-07 22:41 36.88119 -113.37465 25801 ft 371 kts 239°
2026-05-07 22:42 36.86691 -113.40136 25460 ft 369 kts 239°
2026-05-07 22:42 36.85267 -113.42798 25112 ft 368 kts 239°
2026-05-07 22:42 36.83842 -113.45455 24787 ft 367 kts 239°
2026-05-07 22:42 36.82426 -113.48092 24517 ft 363 kts 239°
2026-05-07 22:43 36.81032 -113.50682 24347 ft 357 kts 239°
2026-05-07 22:43 36.79651 -113.53254 24011 ft 356 kts 239°
2026-05-07 22:43 36.78272 -113.55822 23718 ft 355 kts 239°
2026-05-07 22:43 36.76902 -113.58374 23484 ft 353 kts 239°
2026-05-07 22:44 36.75526 -113.60905 23144 ft 353 kts 238°
2026-05-07 22:44 36.74093 -113.63418 22644 ft 356 kts 237°
2026-05-07 22:44 36.72657 -113.65886 22310 ft 355 kts 237°
2026-05-07 22:44 36.71208 -113.68370 21952 ft 353 kts 237°
2026-05-07 22:45 36.69767 -113.70845 21628 ft 351 kts 237°
2026-05-07 22:45 36.68339 -113.73307 21312 ft 349 kts 237°
2026-05-07 22:45 36.66920 -113.75758 20958 ft 348 kts 237°
2026-05-07 22:45 36.65509 -113.78199 20645 ft 346 kts 237°
2026-05-07 22:46 36.64111 -113.80621 20323 ft 344 kts 237°
2026-05-07 22:46 36.63187 -113.82218 20116 ft 343 kts 237°
2026-05-07 22:46 36.61796 -113.84624 19799 ft 341 kts 237°
2026-05-07 22:46 36.60412 -113.87019 19482 ft 340 kts 237°
2026-05-07 22:47 36.59033 -113.89403 19147 ft 339 kts 237°
2026-05-07 22:47 36.57656 -113.91779 18819 ft 337 kts 237°
2026-05-07 22:47 36.55844 -113.94914 18417 ft 336 kts 237°
2026-05-07 22:47 36.54922 -113.96505 18189 ft 336 kts 237°
2026-05-07 22:48 36.53555 -113.98859 17841 ft 334 kts 237°
2026-05-07 22:48 36.52197 -114.01196 17470 ft 333 kts 237°
2026-05-07 22:48 36.50844 -114.03525 17152 ft 331 kts 237°
2026-05-07 22:48 36.49513 -114.05814 16848 ft 329 kts 237°
2026-05-07 22:49 36.48177 -114.08112 16529 ft 327 kts 237°
2026-05-07 22:49 36.46845 -114.10401 16223 ft 326 kts 237°
2026-05-07 22:49 36.45517 -114.12682 15904 ft 324 kts 236°
2026-05-07 22:49 36.44197 -114.14950 15585 ft 323 kts 236°
2026-05-07 22:50 36.42881 -114.17209 15276 ft 322 kts 236°
2026-05-07 22:50 36.41569 -114.19457 14966 ft 321 kts 236°
2026-05-07 22:50 36.40258 -114.21701 14658 ft 321 kts 236°
2026-05-07 22:50 36.38939 -114.23935 14347 ft 320 kts 235°
2026-05-07 22:51 36.37569 -114.26111 14043 ft 319 kts 233°
2026-05-07 22:51 36.36177 -114.28270 13758 ft 319 kts 233°
2026-05-07 22:51 36.34811 -114.30387 13436 ft 318 kts 233°
2026-05-07 22:51 36.33430 -114.32532 13104 ft 318 kts 233°
2026-05-07 22:52 36.32061 -114.34670 12786 ft 316 kts 233°
2026-05-07 22:52 36.30699 -114.36800 12463 ft 313 kts 233°
2026-05-07 22:52 36.29359 -114.38899 12134 ft 307 kts 233°
2026-05-07 22:52 36.28042 -114.40959 11837 ft 303 kts 233°
2026-05-07 22:53 36.26732 -114.43005 11526 ft 303 kts 233°
2026-05-07 22:53 36.25425 -114.45048 11222 ft 302 kts 233°
2026-05-07 22:53 36.24104 -114.47086 10870 ft 303 kts 233°
2026-05-07 22:53 36.22784 -114.49107 10614 ft 300 kts 233°
2026-05-07 22:54 36.21464 -114.51128 10268 ft 301 kts 233°
2026-05-07 22:54 36.20152 -114.53136 9983 ft 299 kts 233°
2026-05-07 22:54 36.18848 -114.55131 9823 ft 294 kts 233°
2026-05-07 22:54 36.17570 -114.57088 9414 ft 296 kts 233°
2026-05-07 22:55 36.16304 -114.59022 9109 ft 289 kts 233°
2026-05-07 22:55 36.15057 -114.60929 8857 ft 280 kts 233°
2026-05-07 22:55 36.13846 -114.62782 8699 ft 275 kts 233°
2026-05-07 22:55 36.12639 -114.64624 8574 ft 275 kts 233°
2026-05-07 22:56 36.11441 -114.66451 8404 ft 271 kts 233°
2026-05-07 22:56 36.10268 -114.68244 8256 ft 266 kts 233°
2026-05-07 22:56 36.09115 -114.69998 8136 ft 260 kts 233°
2026-05-07 22:56 36.07996 -114.71715 7997 ft 252 kts 237°
2026-05-07 22:57 36.07345 -114.73660 7743 ft 244 kts 265°
2026-05-07 22:57 36.07276 -114.75722 7500 ft 239 kts 271°
2026-05-07 22:57 36.07296 -114.77772 7220 ft 238 kts 272°
2026-05-07 22:57 36.07330 -114.79816 6933 ft 237 kts 273°
2026-05-07 22:58 36.07399 -114.81852 6647 ft 238 kts 272°
2026-05-07 22:58 36.07427 -114.83892 6376 ft 236 kts 271°
2026-05-07 22:58 36.07427 -114.85927 6077 ft 236 kts 270°
2026-05-07 22:58 36.07420 -114.87930 5790 ft 232 kts 270°
2026-05-07 22:59 36.07412 -114.89903 5485 ft 226 kts 270°
2026-05-07 22:59 36.07406 -114.91820 5200 ft 219 kts 270°
2026-05-07 22:59 36.07400 -114.93650 4921 ft 213 kts 270°
2026-05-07 22:59 36.07396 -114.95451 4651 ft 206 kts 270°
2026-05-07 23:00 36.07391 -114.97191 4440 ft 200 kts 270°
2026-05-07 23:00 36.07387 -114.98896 4183 ft 195 kts 270°
2026-05-07 23:00 36.07384 -115.00542 3974 ft 192 kts 270°
2026-05-07 23:00 36.07381 -115.02219 3727 ft 196 kts 269°
2026-05-07 23:01 36.07377 -115.03866 3509 ft 183 kts 269°
2026-05-07 23:01 36.07375 -115.05371 3274 ft 168 kts 270°
2026-05-07 23:01 36.07368 -115.06759 3077 ft 157 kts 269°
2026-05-07 23:01 36.07346 -115.08048 2898 ft 145 kts 269°
2026-05-07 23:02 36.07338 -115.09286 2680 ft 142 kts 271°
2026-05-07 23:02 36.07375 -115.10509 2480 ft 143 kts 271°
2026-05-07 23:02 36.07379 -115.11746 2310 ft 145 kts 269°
2026-05-07 23:02 36.07367 -115.12985 2161 ft 146 kts 268°
2026-05-07 23:03 36.07362 -115.14132 2124 ft 113 kts 271°
2026-05-07 23:03 36.07399 -115.14883 2124 ft 76 kts 294°
2026-05-07 23:03 36.07632 -115.15184 2125 ft 2 kts
2026-05-07 23:03 36.07664 -115.15209 2126 ft 20 kts 330°
2026-05-07 23:04 36.07739 -115.15255 2129 ft 8 kts 335°
2026-05-07 23:04 36.07742 -115.15256 2130 ft 0 kts 335°
2026-05-07 23:05 36.07744 -115.15257 2127 ft 1 kts 336°
2026-05-07 23:05 36.07775 -115.15261 2126 ft 9 kts 11°
2026-05-07 23:05 36.07804 -115.15195 2126 ft 10 kts 87°
2026-05-07 23:06 36.07802 -115.15083 2124 ft 15 kts 93°
2026-05-07 23:06 36.07796 -115.14957 2125 ft 14 kts 94°
2026-05-07 23:06 36.07789 -115.14837 2123 ft 14 kts 94°
2026-05-07 23:06 36.07780 -115.14713 2119 ft 15 kts 95°
2026-05-07 23:07 36.07770 -115.14575 2119 ft 16 kts 95°
2026-05-07 23:07 36.07761 -115.14438 2120 ft 16 kts 95°
2026-05-07 23:07 36.07754 -115.14301 2119 ft 16 kts 91°
2026-05-07 23:07 36.07773 -115.14170 2119 ft 16 kts 44°
2026-05-07 23:08 36.07879 -115.14160 2115 ft 15 kts 359°
2026-05-07 23:08 36.07983 -115.14162 2114 ft 15 kts 359°
2026-05-07 23:08 36.08091 -115.14163 2108 ft 17 kts
2026-05-07 23:08 36.08214 -115.14162 2101 ft 16 kts
2026-05-07 23:09 36.08314 -115.14129 2097 ft 15 kts 42°
2026-05-07 23:09 36.08391 -115.14038 2092 ft 14 kts 44°
2026-05-07 23:09 36.08417 -115.13956 2090 ft 0 kts 90°
2026-05-07 23:09 36.08417 -115.13952 2090 ft 2 kts 94°
2026-05-07 23:10 36.08410 -115.13933 2090 ft 1 kts 129°
2026-05-07 23:10 36.08407 -115.13930 2090 ft 1 kts 137°
2026-05-07 23:10 36.08404 -115.13927 2091 ft 1 kts 145°
2026-05-07 23:10 36.08401 -115.13926 2091 ft 1 kts 154°
2026-05-07 23:11 36.08397 -115.13925 2091 ft 0 kts 164°
2026-05-07 23:11 36.08394 -115.13924 2091 ft 0 kts 172°
2026-05-07 23:11 36.08391 -115.13924 2092 ft 0 kts 175°
2026-05-07 23:11 36.08388 -115.13924 2092 ft 0 kts 176°
2026-05-07 23:12 36.08377 -115.13923 2093 ft 4 kts 176°
2026-05-07 23:12 36.08349 -115.13923 2095 ft 4 kts 181°
2026-05-07 23:12 36.08348 -115.13923 2095 ft 0 kts 181°